This is the latest recevied weather packets stored in our database for station/object KC8ZBC. If no packets are shown the sender has not sent any weather packets the latest 1 day(s).
| Time | Temp. | Humidity | Pressure | Rain* | Wind** | Luminosity | Snow |
|---|---|---|---|---|---|---|---|
| 1778044685 | 8.33° C | 60% | 983.6 hPa | 0 mm | 0 m/s | 0 W/m² | - |
| 1778044380 | 8.33° C | 60% | 983.8 hPa | 0 mm | 0 m/s | 0 W/m² | - |
| 1778044079 | 8.33° C | 58% | 983.7 hPa | 0 mm | 0 m/s | 0 W/m² | - |
| 1778043776 | 8.33° C | 59% | 983.8 hPa | 0 mm | 0.45 m/s, 263° | 0 W/m² | - |
| 1778043472 | 8.33° C | 59% | 983.6 hPa | 0 mm | 0.89 m/s, 294° | 0 W/m² | - |
| 1778043169 | 8.89° C | 58% | 983.9 hPa | 0 mm | 0 m/s | 0 W/m² | - |
| 1778042866 | 8.89° C | 59% | 983.9 hPa | 0 mm | 0 m/s | 0 W/m² | - |
| 1778042564 | 8.89° C | 58% | 983.5 hPa | 0 mm | 0 m/s | 0 W/m² | - |
| 1778042261 | 8.89° C | 58% | 983.4 hPa | 0 mm | 0 m/s | 0 W/m² | - |
| 1778041958 | 8.89° C | 57% | 983.7 hPa | 0 mm | 0.45 m/s, 285° | 0 W/m² | - |
| 1778041657 | 8.89° C | 57% | 983.6 hPa | 0 mm | 0.89 m/s, 286° | 0 W/m² | - |
| 1778041355 | 8.89° C | 57% | 983.6 hPa | 0 mm | 0 m/s | 0 W/m² | - |
| 1778041053 | 8.89° C | 58% | 983.8 hPa | 0 mm | 0 m/s | 0 W/m² | - |
| 1778040750 | 8.89° C | 57% | 983.5 hPa | 0 mm | 0 m/s | 0 W/m² | - |
| 1778040447 | 8.89° C | 56% | 983.6 hPa | 0 mm | 0 m/s | 0 W/m² | - |
| 1778040144 | 8.89° C | 56% | 983.6 hPa | 0 mm | 0 m/s | 0 W/m² | - |
| 1778039841 | 8.89° C | 56% | 983.7 hPa | 0 mm | 0 m/s | 0 W/m² | - |
| 1778039538 | 8.89° C | 55% | 983.7 hPa | 0 mm | 0 m/s | 0 W/m² | - |
| 1778039234 | 8.89° C | 56% | 983.5 hPa | 0 mm | 0 m/s | 0 W/m² | - |
| 1778038932 | 8.89° C | 58% | 983.7 hPa | 0 mm | 0 m/s | 0 W/m² | - |
| 1778038629 | 8.89° C | 59% | 983.6 hPa | 0 mm | 0.45 m/s, 337° | 0 W/m² | - |
| 1778038326 | 8.89° C | 55% | 983.6 hPa | 0 mm | 0 m/s | 0 W/m² | - |
| 1778038023 | 8.89° C | 61% | 983.7 hPa | 0 mm | 0 m/s | 0 W/m² | - |
| 1778037720 | 8.89° C | 56% | 983.9 hPa | 0 mm | 0 m/s | 0 W/m² | - |
| 1778037417 | 8.89° C | 56% | 983.7 hPa | 0 mm | 0 m/s | 0 W/m² | - |
* Rain latest hour (hover to see other rain measurements)
** Current wind speed in m/s (hover to see current wind gust speed)